Weather in Calgary

Canada     51°02′02″N   114°05′02″W
temp.,
°C
wind,
m/s
gust,
m/s
humid.,
%
clouds,
%
prec.,
mm/h
press.,
hPa
HPBL,
m
23 april, fri
fri2300:00−2se125085 0.0 1022155
03:00−3e24575 0.0 1022204
06:00−4ese2454100 0.0 1022196
09:00−1s2351100 0.0 1022679
12:00+2sse2238100 0.0 10191671
15:00+4ese2235100 0.0 10161943
18:00+4e3338100 0.1 10151754
21:00+2e3447100 0.0 1016491
24 april, sat
sat2400:00+1ene3551100 0.0 1016625
03:00−1e3558100 0.0 1016230
06:00−2ese347599 0.1 1016275
09:000se3567100 0.1 1015789
12:00+2se4666100 0.2 10131180
15:00+5sse4544100 0.3 10101735
18:00+4sse5650100 0.3 10081417
21:00+1sse3686100 0.1 1010507
25 april, sun
sun2500:000ese2496100 0.6 1009247
03:000e2399100 1.1 1007134
06:00−1ene2497100 2.6 1007244
09:000e3394100 1.3 1007383
12:00+1ne3490100 1.9 1006639
15:00+3ene3369100 0.5 10051055
18:00+4ese2358100 0.7 10031195
21:00+2s1171100 0.1 100421
26 april, mon
mon2600:00+1ssw2280100 0.1 100450
03:00−1s258961 0.0 1004103
06:00−2sse26935 0.0 1004134
09:00+1s468027 0.0 1003500
12:00+6s33575 0.0 1001870
15:00+10s224250 0.0 9991191
18:00+10sse124097 0.4 9981684
21:00+8s125172 0.1 1001171
27 april, tue
tue2700:00+4sse11705 0.1 100319
03:00+3wsw23701 0.0 100466
06:00+2w3464100 0.0 100558
09:00+2n688299 0.0 1010524
12:00+2nne4462100 0.0 1013905
15:00+4ne4356100 0.0 1013975
18:00+4ene5458100 0.0 10141018
21:00+1ene4669100 0.1 1017763